Back to catalog

STARLINK-32027

AliveCommunicationsVLEO
NORAD 60143·PAYLOAD·🇺🇸 United States

Launched Jun 27, 2024 from Cape Canaveral Space Force Station

Loading…

Next Passes (next 24 hours)

TLE

FreshSource: CelesTrak SupGP

Epoch: Sep 14, 2026, 13:40 UTC

1 60143C 24120J   26257.56993056  .00065830  00000+0  19453-2 0  2570
2 60143  53.1572 159.0979 0001358 107.5788 242.1100 15.34351520    12

Track STARLINK-32027 in real time with AllMySat

Download on the App Store